Weather History for GMFM - August, 2013

Change the Weather History Date:

Friday, August 16, 2013

  Actual Average Record
Temperature  
Mean Temperature 78 °F -  
Max Temperature 94 °F - - ()
Min Temperature 62 °F - - ()
Cooling Degree Days 13    
Growing Degree Days 28 (Base 50)    
Moisture  
Dew Point 54 °F    
Average Humidity 43    
Maximum Humidity 73    
Minimum Humidity 12    
Precipitation  
Precipitation 0.00 in - - ()
Sea Level Pressure  
Sea Level Pressure 30.02 in    
Wind  
Wind Speed 3 mph ()    
Max Wind Speed 12 mph    
Max Gust Speed -    
Visibility 6.0 miles    
Events      
T = Trace of Precipitation, MM = Missing Value Source: Averaged Metar Reports

Daily Weather History Graph

Daily Weather History Graph

Search for Another Location

Airport or City:

Trip Planner

Search our weather history database for the weather conditions in past years. The results will help you decide how hot, cold, wet, or windy it might be!

Date:

Astronomy

Aug. 16, 2013 Rise Set
Actual Time 6:44 AM WEST 8:07 PM WEST
Civil Twilight 6:18 AM WEST 8:33 PM WEST
Nautical Twilight 5:46 AM WEST 9:05 PM WEST
Astronomical Twilight 5:13 AM WEST 9:37 PM WEST
Moon 4:07 PM WEST (8/16) 1:39 AM WEST (8/16)
Length of Visible Light 14h 15m
Length of Day
13h 22m
Waxing Gibbous, 72% of the Moon is Illuminated
Aug 16
Waxing Gibbous
Aug 21
Full
Aug 28
Last Quarter
Sep 5
New
Sep 12
First Quarter

Hourly Weather History & Observations

Time (WEST) Temp. Heat Index Dew Point Humidity Pressure Visibility Wind Dir Wind Speed Gust Speed Precip Events Conditions
12:00 AM 73.4 °F - 57.2 °F 57% 30.06 in - ESE 2.3 mph - N/A   Clear
1:00 AM 72 °F - 57 °F 49% 29.97 in 6 mi South 2.3 mph - -  
1:00 AM 71.6 °F - 57.2 °F 60% 30.04 in - South 2.3 mph - N/A   Clear
2:00 AM 69.8 °F - 55.4 °F 60% 30.04 in - Calm Calm - N/A   Clear
3:00 AM 69.8 °F - 55.4 °F 60% 30.04 in - Calm Calm - N/A   Clear
4:00 AM 67 °F - 55 °F 57% 29.96 in 6 mi Calm Calm - -  
4:00 AM 66.2 °F - 55.4 °F 68% 30.01 in - Calm Calm - N/A   Clear
5:00 AM 66.2 °F - 57.2 °F 73% 30.04 in - Calm Calm - N/A   Clear
6:00 AM 64.4 °F - 55.4 °F 73% 30.04 in - Calm Calm - N/A   Clear
7:00 AM 63 °F - 51 °F 54% 29.99 in 6 mi SSW 2.3 mph - -  
7:00 AM 62.6 °F - 50.0 °F 63% 30.04 in - SSW 2.3 mph - N/A   Clear
8:00 AM 71.6 °F - 53.6 °F 53% 30.04 in - Calm Calm - N/A   Clear
9:00 AM 75.2 °F - 53.6 °F 47% 30.06 in - Calm Calm - N/A   Clear
10:00 AM 80 °F - 55 °F 31% 29.95 in 6 mi WNW 2.3 mph - -  
10:00 AM 80.6 °F 80.5 °F 55.4 °F 42% 30.06 in - WNW 2.3 mph - N/A   Clear
11:00 AM 84.2 °F 83.0 °F 55.4 °F 37% 30.06 in - NW 3.5 mph - N/A   Clear
12:00 PM 86.0 °F 84.2 °F 53.6 °F 33% 30.06 in - NW 5.8 mph - N/A   Clear
1:00 PM 87 °F - 52 °F 20% 29.92 in 6 mi WNW 6.9 mph - -  
1:00 PM 87.8 °F - 51.8 °F 29% 30.04 in - WNW 6.9 mph - N/A   Clear
2:00 PM 89.6 °F - 50.0 °F 26% 30.04 in - WNW 10.4 mph - N/A   Clear
3:00 PM 91.4 °F - 51.8 °F 26% 30.04 in - NNW 8.1 mph - N/A   Clear
4:00 PM 93 °F - 47 °F 12% 29.87 in 6 mi NNW 8.1 mph - -  
4:00 PM 93.2 °F - 48.2 °F 21% 30.01 in - West 8.1 mph - N/A   Clear
5:00 PM 93.2 °F - 44.6 °F 19% 30.01 in - NNW 11.5 mph - N/A   Clear
6:00 PM 89.6 °F - 50.0 °F 26% 30.01 in - NW 6.9 mph - N/A   Clear
7:00 PM 90 °F - 55 °F 20% 29.87 in 6 mi NW 9.2 mph - -  
7:00 PM 89.6 °F 87.7 °F 55.4 °F 31% 30.01 in - NW 9.2 mph - N/A   Clear
8:00 PM 84.2 °F 83.0 °F 55.4 °F 37% 30.04 in - WNW 10.4 mph - N/A   Clear
9:00 PM 80.6 °F 80.5 °F 55.4 °F 42% 30.06 in - WNW 6.9 mph - N/A   Clear
10:00 PM 78 °F - 57 °F 39% 29.99 in 6 mi WNW 6.9 mph - -  
10:00 PM 77.0 °F - 57.2 °F 50% 30.09 in - WNW 6.9 mph - N/A   Clear
11:00 PM 73.4 °F - 57.2 °F 57% 30.06 in - West 4.6 mph - N/A   Clear